Regional Weather Roundup
Issued by NWS Albany, NY

Home | Current Version | Previous Version | Text Only | Print | Product List | Glossary On
Versions: 1 2 3 4 5 6 7 8 9 10 11 12 13 14 15 16 17 18 19 20 21 22 23 24 25 26 27 28 29 30 31 32 33 34 35 36 37 38 39 40 41 42 43 44 45 46 47 48 49 50
000
ASUS41 KALY 300910
RWRALY

NEW YORK STATE HOURLY WEATHER ROUNDUP
NATIONAL WEATHER SERVICE ALBANY NY
500 AM EDT SUN AUG 30 2015

NOTE: "FAIR" INDICATES FEW OR NO CLOUDS BELOW 12,000 FEET WITH NO
SIGNIFICANT WEATHER AND/OR NO OBSTRUCTIONS TO VISIBILITY.

NYZ032-033-038>043-046>054-057>066-NYZ062>081-301000-
EAST


CITY           SKY/WX    TMP DP  RH WIND       PRES   REMARKS
ALBANY         MOCLDY    62  58  86 CALM      30.07S
GLENS FALLS    MOCLDY    61  59  93 CALM      30.06S
POUGHKEEPSIE   CLEAR     62  59  90 CALM      30.06S
MONTGOMERY     CLEAR     61  60  97 S5        30.08S FOG
WHITE PLAINS   CLEAR     65  60  84 CALM      30.09R
ISLIP          CLEAR     69  62  78 SW5       30.07S
NEW YORK CITY  MOCLDY    73  61  65 SW7       30.08R
CENTRAL PARK   CLEAR     73  60  63 VRB6      30.12R
$$

NYZ005>009-017-018-044>046-055-056-301000-
CENTRAL


CITY           SKY/WX    TMP DP  RH WIND       PRES   REMARKS
FULTON         CLOUDY    64  60  87 CALM      30.07S
SYRACUSE       CLOUDY    64  61  90 E5        30.06F
ROME           CLOUDY    62  59  90 E3        30.09F
ELMIRA         LGT RAIN  63  62  97 SW5       30.09R
BINGHAMTON     CLOUDY    62  60  93 CALM      30.11R
MONTICELLO     MOCLDY    57  57 100 CALM      30.13R
$$

NYZ026>034-041>043-301000-
NORTH


CITY           SKY/WX    TMP DP  RH WIND       PRES   REMARKS
WATERTOWN      CLOUDY    60  58  92 CALM      30.07R
FORT DRUM      NOT AVBL
MASSENA        PTCLDY    61  58  90 SW6       30.06R
SARANAC LAKE   MOCLDY    55  54  96 CALM      30.08S
PLATTSBURGH    MOCLDY    61  59  93 W3        30.04S
$$

NYZ001>004-010>016-019>021-301000-
WEST


CITY           SKY/WX    TMP DP  RH WIND       PRES   REMARKS
NIAGARA FALLS  CLOUDY    66  59  78 W3        30.05S
BUFFALO        CLOUDY    67  62  84 CALM      30.06S
DUNKIRK        CLOUDY    66  63  90 S6        30.05F
JAMESTOWN      CLOUDY    63  59  88 S5        30.09F
WELLSVILLE     CLOUDY    63  59  87 CALM      30.13F
ROCHESTER      CLOUDY    67  62  84 W3        30.06R
PENN YAN       CLOUDY    65  63  93 S3        30.08S
$$

             KEY
       WCI = WIND CHILL INDEX
       VSB = VISIBILITY
       HX  = HEAT INDEX
$$


USA.gov is the U.S. government's official web portal to all federal, state and local government web resources and services.